User: anonymous   Login
Location: Unspecified
(0.0000°N, 0.0000°E)
Time: 12:10:01
(UTC+00:00)
Language:

USA 227 - Orbit

View from above orbital plane
View from above orbital plane
View from above satellite
View from above satellite

Ground track
Ground track

The orbit data is extracted from the following two-line orbital elements,

1 37377U 11011A   17169.65287931 0.00000000  00000-0  00000-0 0    09
2 37377   4.6968   1.0639 0015290 187.3434 172.6469  1.00270000    03
Epoch (UTC): 18 June 2017 15:40:08
Eccentricity: 0.0015290
inclination: 4.6968°
perigee height: 35722 km
apogee height: 35851 km
right ascension of ascending node: 1.0639°
argument of perigee: 187.3434°
revolutions per day: 1.00270000
mean anomaly at epoch: 172.6469°
orbit number at epoch: 0

The dashed part of the orbit path shows where the satellite is in the earth's shadow,  

DLR